Regional Weather Roundup
Issued by NWS Goodland, KS

Home | Current Version | Previous Version | Text Only | Print | Product List | Glossary On
Versions: 1 2 3 4 5 6 7 8 9 10 11 12 13 14 15 16 17 18 19 20 21 22 23 24 25 26 27 28 29 30 31 32 33 34 35 36 37 38 39 40 41 42 43 44 45 46 47 48 49 50
000
ASUS43 KGLD 261008
RWRGLD

GOODLAND FORECAST AREA HOURLY WEATHER ROUNDUP
NATIONAL WEATHER SERVICE GOODLAND KS
400 AM MDT MON SEP 26 2016

...OFFICIAL OBSERVATIONS...

CITY           SKY/WX    TMP DP  RH WIND       PRES   REMARKS
GOODLAND KS    CLEAR     42  34  73 SW8       30.38S
HILL CITY KS   CLEAR     40  34  79 W5        30.36S
IMPERIAL NEB   CLEAR     38  33  82 W3        30.37F
MCCOOK NEB     CLEAR     37  33  85 SW5       30.36S
AKRON CO       CLEAR     44  31  60 SW10      30.39F
BURLINGTON CO  CLEAR     41  34  76 W6        30.39F
LIMON CO       CLOUDY    30  23  75 N5        30.44F
$$

...UNOFFICIAL OBSERVATIONS...

CITY           SKY/WX    TMP DP  RH WIND       PRES   REMARKS
LENORA KS        N/A     45  32  60 MISG        N/A
SHARON SPRINGS   N/A     40  34  80 W5          N/A
KIT CARSON CO    N/A     38  32  80 CALM        N/A
$$




USA.gov is the U.S. government's official web portal to all federal, state and local government web resources and services.